[[{"header":{"parameterUnit":"m.s-1","parameterCategory":1,"la1":30.2991,"la2":30.254,"lo1":-89.0895,"lo2":-89.0444,"dy":0.0017,"dx":0.0017,"nx":28,"ny":28,"refTime":"2024-11-28T09:00:00:Z","depth":0,"parameterNumber":2,"parameterNumberName":"U-component_of_WINDS"},"data":[0,0,0,0,0,0,0,0,0,0,0,0,0,0,0,0,0,0,0,0,0,0,0,0,0,0,0,0,0,0,0,0,0,0,0,0,0,0,0,0,0,0,0,0,0,0,0,0,0,0,0,0,0,0,0,0,0,0,2.8236,2.8237,0,2.8297,2.8298,2.8298,2.8256,2.8254,2.8252,2.825,2.8318,2.8322,2.8325,0,0,0,0,0,0,0,0,0,0,0,0,0,2.809,2.8093,2.8236,2.8237,2.8238,2.8297,2.8298,2.8299,2.8256,2.8254,2.8252,2.8249,2.8317,2.8321,2.8325,0,0,0,0,0,0,0,0,0,0,0,0,0,2.8152,2.8094,2.8236,2.8224,2.8223,2.8297,2.8298,2.8299,2.8257,2.8254,2.8251,2.8248,2.8315,2.8321,2.8326,2.8417,0,0,2.8342,2.8345,0,0,0,0,0,0,0,0,2.8149,2.8158,2.8225,2.8225,2.8224,2.8266,2.8271,2.8339,2.8258,2.8244,2.825,2.8247,2.8303,2.831,2.8327,2.842,2.8423,2.8343,2.8346,2.8349,2.835,0,0,0,0,0,0,0,2.8145,2.8155,2.826,2.8226,2.8225,2.8217,2.8223,2.8283,2.8289,2.8245,2.8242,2.825,2.8303,2.8322,2.8329,2.8424,2.8343,2.8348,2.8351,2.8353,2.8596,2.8599,0,0,0,0,0,0,2.8141,2.8152,2.8258,2.8262,2.8178,2.8222,2.8228,2.8255,2.8289,2.8291,2.8252,2.8247,2.8315,2.8323,2.8331,2.844,2.8348,2.8354,2.8357,2.8593,2.8597,2.86,0,0,0,0,0,0,2.8138,2.815,2.8256,2.8206,2.8219,2.8228,2.8258,2.8258,2.8278,2.8294,2.8295,2.8271,2.8313,2.8323,2.8396,2.8442,2.8356,2.8361,2.8589,2.8594,2.8599,2.866,0,0,0,0,0,0,2.8134,2.815,2.8183,2.8207,2.8222,2.8318,2.8261,2.8261,2.8286,2.8281,2.8311,2.8314,2.8311,2.8388,2.8401,2.8448,2.8365,2.8585,2.8591,2.8597,2.8653,2.8666,2.8677,0,0,0,0,0,2.8128,2.8198,2.8184,2.8198,2.8263,2.8321,2.8329,2.8323,2.829,2.8325,2.8335,2.8313,2.8435,2.8396,2.841,2.8459,2.8582,2.859,2.8597,2.8648,2.8663,2.8676,0,0,0,0,0,0,2.818,2.8201,2.8186,2.8265,2.8291,2.8313,2.8356,2.8339,2.8376,2.837,2.8363,2.837,2.8446,2.846,2.8416,2.855,2.8504,2.8514,2.8538,2.8553,2.8564,2.8559,2.837,0,0,0,0,0,2.82,2.8244,2.8261,2.8329,2.8343,2.8348,2.8372,2.8366,2.8393,2.8404,2.842,2.8449,2.8494,2.8524,2.8566,2.8655,2.8663,2.8697,2.8708,2.8718,2.8727,2.8777,2.8793,2.8624,2.8624,2.8624,0,0,2.8243,2.826,2.8288,2.834,2.8359,2.8406,2.8357,2.8409,2.8444,2.8413,2.8482,2.8495,2.8527,2.8609,2.8645,2.8623,2.8775,2.8727,2.8734,2.8739,2.8786,2.8802,2.8816,2.8629,2.8628,2.8628,0,0,2.8346,2.8362,2.8421,2.8442,2.8472,2.8475,2.8489,2.8514,2.8521,2.859,2.8568,2.8611,2.8688,2.8713,2.8735,2.8849,2.8831,2.8863,2.8924,2.8972,2.8986,2.8997,2.9039,2.9054,2.8872,2.8873,2.8873,0,2.8396,2.8464,2.8455,2.8508,2.8532,2.8505,2.8566,2.8587,2.863,2.8649,2.8622,2.872,2.8739,2.8827,2.8855,2.8873,2.8891,2.8859,2.8984,2.8996,2.9007,2.9047,2.9062,2.8876,2.8876,2.8876,2.8875,0,2.8525,2.8573,2.8617,2.8658,2.8687,2.8745,2.8746,2.8778,2.8769,2.8776,2.8848,2.887,2.8917,2.8938,2.893,2.9025,2.901,2.8984,2.8938,2.9027,2.9064,2.9079,2.8882,2.888,2.8879,2.8878,0,0,2.866,2.8695,2.8712,2.8731,2.8762,2.88,2.8858,2.8902,2.893,2.8962,2.9011,2.9077,2.9054,2.908,2.9075,2.9118,2.9208,2.9086,2.9087,2.9109,2.9316,2.9336,2.9353,2.9196,2.9199,2.9201,2.9314,0,2.8764,2.8862,2.8856,2.8949,2.8994,2.897,2.902,2.9047,2.9055,2.9096,2.9106,2.9154,2.9119,2.9134,2.9175,2.9188,2.925,2.918,2.9244,2.9246,2.9236,2.9372,2.9393,2.9498,2.9328,2.933,2.9332,0,2.8899,2.8933,2.903,2.9056,2.9075,2.912,2.9162,2.9201,2.9231,2.9235,2.9264,2.9253,2.9313,2.9265,2.935,2.9302,2.9328,2.9339,2.9343,2.9349,2.9294,2.9383,2.9531,2.9547,2.9355,2.9353,2.9351,0,2.8989,2.906,2.9127,2.9144,2.9176,2.9209,2.9224,2.9251,2.9279,2.9316,2.9335,2.9379,2.9403,2.9439,2.9441,2.9405,2.9527,2.9479,2.9533,2.9533,2.956,2.9558,2.9715,2.9576,2.9576,2.9576,2.9575,0,2.9106,2.9166,2.9168,2.921,2.9278,2.9272,2.934,2.9352,2.9377,2.9423,2.9405,2.9448,2.9448,2.9493,2.9495,2.9566,2.9577,2.9583,2.9583,2.9585,2.9584,2.9602,2.9595,2.958,2.9579,2.9578,2.9577,0,2.9217,2.9221,2.9293,2.9318,2.9325,2.9375,2.9397,2.9438,2.9445,2.9502,2.9516,2.9528,2.958,2.9585,2.9646,2.9648,2.9734,2.9726,2.9723,2.9722,2.9776,2.9771,2.995,2.9974,2.9819,2.9821,2.9822,0,2.9292,2.9338,2.9368,2.9396,2.9413,2.9459,2.9487,2.9484,2.9515,2.9554,2.959,2.964,2.968,2.9765,2.9781,2.9828,2.9822,2.9881,2.9829,2.9829,2.9824,2.9821,2.9826,2.9891,2.9893,2.9894,2.9895,0,2.9424,2.9424,2.9464,2.9506,2.954,2.9573,2.9604,2.9629,2.9631,2.9666,2.9719,2.975,2.9812,2.9863,2.9909,2.9928,2.9913,2.9912,2.9927,2.9929,2.9926,2.993,2.9751,2.9908,2.9906,2.9906,2.9905,2.9904,2.952,2.956,2.9587,2.9634,2.9657,2.9687,2.9726,2.9739,2.9782,2.9831,2.9828,2.9886,2.9918,2.9979,3.0001,3.0048,3.0028,3.005,3.0056,3.0061,3.0067,2.9919,3.0056,3.0056,3.0056,3.0055,3.0055,0,2.9652,2.9668,2.9711,2.9755,2.9792,2.9773,2.9808,2.984,2.9891,2.9921,2.9961,3.0022,3.0072,3.0092,3.0141,3.0176,3.017,3.0189,3.0186,3.0191,3.0081,3.0063,3.0192,3.0192,3.0192,3.0192,3.0192,3.0192,2.9724,2.9792,2.9796,2.9875,2.9892,2.9948,2.9969,2.9998,3.0022,3.0091,3.0131,3.0143,3.017,3.0222,3.0267,3.0272,3.0292,3.0313,3.0315,3.0212,3.0199,3.0185,3.0169,3.0317,3.0317,3.0421,3.0422,3.0423]},{"header":{"parameterUnit":"m.s-1","parameterCategory":1,"la1":30.2991,"la2":30.254,"lo1":-89.0895,"lo2":-89.0444,"dy":0.0017,"dx":0.0017,"nx":28,"ny":28,"refTime":"2024-11-28T09:00:00:Z","depth":0,"parameterNumber":3,"parameterNumberName":"V-component_of_WINDS"},"data":[0,0,0,0,0,0,0,0,0,0,0,0,0,0,0,0,0,0,0,0,0,0,0,0,0,0,0,0,0,0,0,0,0,0,0,0,0,0,0,0,0,0,0,0,0,0,0,0,0,0,0,0,0,0,0,0,0,0,2.7086,2.7087,0,2.7186,2.7187,2.7188,2.7191,2.719,2.7188,2.7187,2.7291,2.7295,2.7299,0,0,0,0,0,0,0,0,0,0,0,0,0,2.6901,2.6904,2.7086,2.7087,2.7088,2.7185,2.7187,2.7188,2.7191,2.719,2.7188,2.7187,2.729,2.7294,2.7299,0,0,0,0,0,0,0,0,0,0,0,0,0,2.6989,2.6905,2.7086,2.7102,2.7104,2.7185,2.7187,2.7188,2.7191,2.719,2.7188,2.7186,2.7288,2.7294,2.73,2.7372,0,0,2.7318,2.732,0,0,0,0,0,0,0,0,2.6984,2.6996,2.7098,2.7101,2.7103,2.7174,2.7159,2.725,2.7192,2.7158,2.7187,2.7185,2.7254,2.7262,2.7285,2.7377,2.7382,2.7318,2.7322,2.7324,2.7326,0,0,0,0,0,0,0,2.6978,2.6991,2.7125,2.7099,2.7103,2.7104,2.7115,2.7177,2.7215,2.7161,2.7161,2.7173,2.7255,2.7279,2.7287,2.7383,2.7318,2.7323,2.7327,2.7329,2.7541,2.7543,0,0,0,0,0,0,2.6968,2.6986,2.7122,2.7128,2.7038,2.7109,2.7121,2.7153,2.7214,2.7222,2.7175,2.7173,2.727,2.7281,2.7291,2.7381,2.7324,2.733,2.7333,2.7539,2.7542,2.7544,0,0,0,0,0,0,2.6964,2.698,2.7118,2.7057,2.7075,2.7114,2.715,2.7156,2.7181,2.7225,2.7232,2.7192,2.7269,2.7283,2.7352,2.7385,2.7332,2.7338,2.7537,2.754,2.7543,2.7561,0,0,0,0,0,0,2.6959,2.6979,2.7006,2.7058,2.7078,2.7177,2.7152,2.7159,2.719,2.7189,2.7243,2.725,2.7269,2.7343,2.7358,2.7392,2.7342,2.7534,2.7538,2.7542,2.7558,2.7565,2.757,0,0,0,0,0,2.6952,2.7008,2.7008,2.7024,2.7113,2.7179,2.7191,2.721,2.7193,2.7221,2.725,2.7249,2.7378,2.7351,2.7367,2.7403,2.7532,2.7537,2.7541,2.7555,2.7563,2.757,0,0,0,0,0,0,2.6959,2.7015,2.7015,2.7089,2.7129,2.7179,2.7216,2.7218,2.7265,2.7261,2.7284,2.7296,2.7366,2.7391,2.7359,2.7477,2.7453,2.7462,2.7458,2.7466,2.7472,2.7465,2.7347,0,0,0,0,0,2.6969,2.7017,2.7063,2.7124,2.7144,2.7176,2.7206,2.7217,2.726,2.7277,2.7311,2.7353,2.7403,2.7436,2.7485,2.7561,2.7574,2.7594,2.76,2.7605,2.7613,2.7656,2.7666,2.756,2.756,2.7559,0,0,2.6991,2.7027,2.7056,2.7126,2.7159,2.7209,2.7191,2.7244,2.7282,2.7286,2.7353,2.7379,2.7428,2.7501,2.7535,2.7525,2.7645,2.7611,2.7615,2.762,2.7662,2.7672,2.7681,2.7563,2.7562,2.7562,0,0,2.7056,2.7087,2.7142,2.7175,2.7224,2.7245,2.7258,2.7308,2.7326,2.7394,2.7398,2.7443,2.7529,2.7564,2.7593,2.7671,2.7672,2.7686,2.772,2.7762,2.777,2.7778,2.7807,2.7817,2.7693,2.7693,2.7693,0,2.7077,2.7152,2.717,2.7224,2.7255,2.726,2.7316,2.7347,2.741,2.7432,2.7419,2.7527,2.756,2.7643,2.7662,2.7684,2.7701,2.7681,2.7767,2.7775,2.7783,2.7811,2.7822,2.7695,2.7694,2.7694,2.7694,0,2.7175,2.7227,2.7265,2.7326,2.7361,2.7416,2.7443,2.7477,2.7486,2.7508,2.7578,2.7618,2.7675,2.7695,2.7704,2.7779,2.7771,2.7762,2.7739,2.7794,2.7821,2.7832,2.7697,2.7696,2.7696,2.7695,0,0,2.7248,2.7318,2.7332,2.736,2.7414,2.7455,2.751,2.7566,2.7595,2.7638,2.7686,2.7759,2.7751,2.7784,2.7796,2.7833,2.7894,2.782,2.7822,2.7834,2.7981,2.7989,2.8001,2.7895,2.7897,2.7899,2.7978,0,2.732,2.7418,2.7436,2.7522,2.7571,2.7576,2.7624,2.7664,2.7686,2.7732,2.7757,2.7809,2.7794,2.7814,2.785,2.7879,2.7925,2.7873,2.7941,2.7943,2.793,2.8015,2.8022,2.8095,2.7988,2.799,2.7991,0,2.7418,2.7463,2.7553,2.7602,2.7623,2.7666,2.7719,2.7762,2.7807,2.7821,2.7857,2.7866,2.7924,2.7897,2.7979,2.7944,2.7972,2.7991,2.7994,2.8002,2.7971,2.8027,2.8119,2.813,2.8008,2.8006,2.8005,0,2.7464,2.7547,2.7612,2.7636,2.7694,2.7724,2.775,2.7793,2.7825,2.7872,2.7893,2.7945,2.7975,2.8015,2.8038,2.8016,2.8119,2.8093,2.8133,2.8133,2.8156,2.8154,2.8255,2.8171,2.8171,2.8171,2.8171,0,2.7543,2.7598,2.7634,2.7674,2.7736,2.7757,2.7819,2.7844,2.7882,2.7928,2.7936,2.7979,2.8005,2.8053,2.8071,2.8136,2.8149,2.8163,2.8167,2.8163,2.8162,2.8183,2.8179,2.8174,2.8173,2.8173,2.8172,0,2.7605,2.7631,2.7703,2.7752,2.7765,2.7809,2.7852,2.7892,2.7914,2.7972,2.7987,2.8023,2.8079,2.8105,2.8174,2.8187,2.8261,2.8262,2.8246,2.8248,2.8287,2.8284,2.8407,2.8425,2.8328,2.8329,2.8329,0,2.7655,2.7698,2.7751,2.7782,2.7809,2.7859,2.7892,2.7914,2.7948,2.8003,2.8036,2.8092,2.8138,2.8228,2.826,2.8314,2.8316,2.8356,2.8324,2.8319,2.8319,2.8316,2.8321,2.8362,2.8363,2.8363,2.8364,0,2.7741,2.7751,2.7798,2.785,2.789,2.7932,2.7973,2.7998,2.8027,2.8065,2.8122,2.8158,2.8229,2.8285,2.8341,2.8368,2.8372,2.8373,2.8386,2.8383,2.8373,2.838,2.8263,2.8371,2.837,2.837,2.8369,2.8369,2.7799,2.7838,2.7882,2.7934,2.7968,2.8006,2.8046,2.8074,2.8122,2.8181,2.8191,2.8252,2.8296,2.8371,2.8401,2.8449,2.844,2.8458,2.8462,2.8467,2.847,2.8363,2.8459,2.8459,2.8459,2.8459,2.8459,0,2.7886,2.7915,2.7963,2.8021,2.8062,2.8061,2.8107,2.8142,2.8195,2.8236,2.8282,2.8348,2.8402,2.8439,2.8494,2.8526,2.853,2.854,2.8539,2.8546,2.8474,2.8458,2.8537,2.8537,2.8537,2.8537,2.8537,2.8537,2.7937,2.8003,2.8019,2.8101,2.813,2.8189,2.8216,2.8252,2.8285,2.8358,2.8403,2.8426,2.8466,2.8525,2.8575,2.8584,2.8605,2.8617,2.8626,2.8559,2.855,2.8543,2.8528,2.862,2.8621,2.8694,2.8695,2.8695]}]]